Vorticity
nan nan nan nan nan nan nan nan nan nan nan nan nan nan nan nan nan nan nan nan nan nan nan nan nan nan nan nan nan nan nan nan nan nan nan nan nan nan nan nan nan nan nan nan nan nan nan nan nan
nan 1 2 6 7 5 7 6 8 2 11 10 5 5 4 8 14 15 9 11 4 3 5 9 8 5 5 5 5 5 5 5 5 5 5 6 6 5 6 6 6 6 6 5 5 5 5 5 nan
nan -1 4 7 4 4 7 8 9 17 8 -4 1 5 10 12 17 5 7 8 2 4 7 11 7 6 6 5 4 5 5 5 5 6 6 5 5 6 6 6 6 6 7 6 6 6 6 5 nan
nan 4 6 6 6 6 2 10 14 8 -3 8 6 4 11 13 10 8 10 3 3 5 8 10 7 5 5 5 6 4 5 5 4 5 6 6 5 6 6 6 6 6 6 7 8 8 8 7 nan
nan 7 7 6 9 8 6 12 11 -0 8 9 4 7 5 10 18 11 5 3 4 5 7 7 8 5 5 4 5 6 5 5 5 5 5 6 6 6 6 6 6 5 6 6 6 7 8 8 nan
nan 7 8 6 4 7 11 13 6 9 10 7 9 3 7 19 8 3 3 4 7 6 6 8 7 5 5 5 4 5 5 5 5 5 4 5 6 6 5 5 6 6 5 5 5 5 6 6 nan
nan 9 5 5 9 4 8 15 14 10 2 9 3 1 13 12 6 4 1 8 9 5 6 6 6 7 4 3 5 5 5 5 4 4 5 5 5 6 5 4 4 5 5 5 4 4 3 4 nan
nan 6 6 6 8 4 4 14 20 2 5 9 4 6 14 13 5 2 4 8 6 5 5 5 6 5 5 8 7 4 4 4 4 4 4 5 4 5 4 3 4 5 4 4 5 4 5 4 nan
nan 4 9 9 4 10 3 15 11 5 11 5 12 17 19 12 4 1 6 7 4 6 6 5 6 6 7 8 7 6 4 4 3 4 2 1 3 6 6 5 5 4 3 4 5 7 7 6 nan
nan 5 8 5 -2 8 8 8 11 13 2 6 17 20 13 7 3 3 6 6 6 6 5 5 5 6 6 6 6 5 4 4 5 5 4 4 6 6 7 8 6 4 4 3 5 7 10 8 nan
nan 0 4 8 7 3 8 7 7 4 8 11 9 5 6 3 1 4 6 8 6 5 5 6 5 6 5 6 5 6 7 7 8 7 6 6 5 6 8 9 7 5 7 6 6 7 8 8 nan
nan 3 0 4 5 5 14 9 6 1 13 19 12 7 4 3 4 5 6 8 7 6 6 5 6 5 4 6 7 7 7 7 8 8 6 7 7 8 7 7 7 6 7 6 5 5 7 8 nan
nan 6 4 10 10 7 9 5 7 19 18 14 9 6 4 4 5 5 6 7 8 6 6 6 5 5 6 5 5 7 8 8 8 7 7 6 7 7 7 7 7 7 6 6 7 6 8 7 nan
nan 7 6 11 10 15 11 2 13 22 12 10 5 3 5 6 4 3 6 7 8 6 6 6 5 5 5 4 6 6 7 7 8 8 9 6 6 8 8 8 7 8 7 6 8 7 7 9 nan
nan 7 13 9 4 10 12 5 18 16 6 6 4 4 6 5 6 5 5 6 5 7 8 6 6 6 6 4 5 7 8 10 8 9 8 7 7 9 9 8 7 8 7 7 8 7 7 8 nan
nan 12 12 9 5 9 3 9 20 12 6 6 4 5 5 7 5 5 5 6 5 9 8 6 6 8 5 5 6 7 9 11 9 9 9 9 8 7 8 8 8 8 8 9 7 8 6 7 nan
nan 14 14 15 7 1 2 8 19 8 5 6 6 4 6 5 5 6 6 6 5 8 10 8 6 7 5 5 8 9 7 7 9 8 9 9 8 7 8 8 9 8 8 10 7 9 9 8 nan
nan 9 8 9 15 13 -2 17 18 6 7 5 4 5 5 8 6 5 7 5 4 10 12 6 7 8 5 5 7 7 7 7 10 9 9 8 7 7 7 8 7 8 9 7 8 7 10 11 nan
nan 5 3 7 8 14 16 25 13 5 3 6 8 8 8 7 5 6 7 6 4 9 12 8 5 5 4 5 7 8 8 6 9 11 9 8 7 7 6 8 8 7 8 8 7 7 7 8 nan
nan 4 5 7 12 11 20 20 12 5 7 7 4 6 7 9 12 7 6 7 6 8 9 9 6 4 4 5 5 8 9 9 8 10 10 9 7 7 7 8 8 7 7 9 7 7 7 8 nan
nan 4 4 6 8 7 16 17 6 6 10 8 6 7 12 7 11 12 8 6 7 8 9 8 8 5 5 3 2 5 6 8 9 9 11 10 10 7 7 7 8 7 8 7 8 8 8 7 nan
nan 8 4 2 9 12 8 9 11 12 5 3 6 9 9 6 8 11 11 10 8 9 8 9 8 6 6 6 7 6 4 5 7 8 10 11 9 7 7 7 7 7 8 8 8 7 6 8 nan
nan 9 11 6 7 8 1 12 22 15 3 6 4 5 10 12 6 9 10 10 9 8 8 8 10 7 7 6 6 5 5 6 8 10 10 9 9 9 7 7 8 7 8 9 8 7 7 6 nan
nan 11 10 12 8 8 10 8 16 19 9 3 4 10 10 8 10 9 7 6 8 8 8 8 9 8 7 7 7 7 4 5 5 8 8 9 10 10 9 9 7 8 8 9 8 9 8 7 nan
nan 6 10 10 10 8 16 7 18 19 9 9 8 9 8 8 10 10 8 6 8 10 6 7 7 7 9 7 6 7 6 6 5 6 8 8 8 10 11 8 7 8 9 9 9 9 9 8 nan
nan -3 12 13 9 12 13 7 15 21 17 16 18 12 4 5 7 10 11 8 6 9 8 7 6 6 8 7 6 7 6 5 7 6 8 9 9 10 10 8 7 8 7 8 8 8 9 9 nan
nan 13 1 6 8 13 6 6 11 11 17 26 16 9 10 7 7 10 10 8 7 9 9 8 7 7 7 6 6 7 9 8 7 7 6 8 10 11 11 10 8 8 8 8 7 7 9 9 nan
nan 8 5 6 10 3 11 11 11 10 9 15 21 11 8 9 6 9 12 10 7 8 10 9 9 8 7 7 6 7 7 8 8 8 8 6 9 11 11 10 9 8 8 7 7 7 9 7 nan
nan 7 5 8 9 9 10 9 15 10 10 11 21 15 11 9 7 7 9 11 9 7 10 9 10 8 7 8 8 7 7 7 7 8 8 7 7 11 10 11 10 9 9 7 6 7 9 8 nan
nan nan nan nan nan nan nan nan nan nan nan nan nan nan nan nan nan nan nan nan nan nan nan nan nan nan nan nan nan nan nan nan nan nan nan nan nan nan nan nan nan nan nan nan nan nan nan nan nan
CAPE
62 13 4 107 162 21 43 76 119 111 138 207 168 118 59 8 34 0 1 0 3 102 676 1266 1981 2083 1973 2130 2091 1969 2003 1956 2107 2131 2057 2090 2101 2138 2133 2063 1959 1727 1773 1814 1738 1537 1381 1490 1167
20 15 138 276 83 0 5 88 126 227 108 222 265 160 58 0 1 11 0 0 24 187 453 1128 1965 2333 2225 2186 2172 2117 1619 1783 2226 2121 2079 2080 1950 1914 1871 2012 1768 1798 1789 1684 1649 1563 1544 1445 1319
48 229 186 205 42 0 61 73 170 297 403 360 117 15 0 4 10 2 0 0 24 148 550 1082 2120 2409 2311 2133 1984 2108 1751 1866 1878 2046 1987 1897 1954 2004 1952 1775 1687 1694 1566 1446 1401 1309 1281 1276 1203
102 480 359 112 117 29 42 45 261 72 154 57 1 0 0 0 0 0 0 0 0 179 508 1760 1958 1862 2076 1811 2078 1913 1866 1989 1856 1969 1874 1759 1800 1937 1728 1788 1687 1636 1708 1554 1414 1309 1168 1202 1223
186 152 183 154 75 146 154 228 410 373 208 76 0 0 6 0 0 0 0 0 0 248 991 1392 2291 2455 2122 1769 1891 1863 1941 2015 2010 2112 2060 2142 1916 1804 1827 1828 1803 1888 1846 1739 1659 1575 1424 1369 1239
202 1 4 2 0 2 14 147 445 338 158 6 0 93 0 0 0 0 0 0 185 610 1008 1584 2139 2333 2253 1730 1913 1855 2123 1896 2174 2053 1859 2068 2270 1854 1812 1794 1744 1640 1609 1498 1315 1459 1414 980 1280
89 0 0 0 17 65 37 194 209 267 147 33 10 59 0 0 0 0 0 0 408 715 1090 1356 1421 1505 1695 2067 1868 1655 1803 1909 1972 2003 1973 1964 1913 1916 1781 1861 1773 1557 1494 1442 1382 1326 1312 1288 1077
17 0 0 3 0 77 334 171 366 359 320 176 72 2 0 0 0 0 0 256 256 653 1197 1286 1211 1072 1431 1545 1667 1676 1787 1775 1744 1692 1627 1558 1624 1652 1690 1907 2205 1403 1269 1202 1213 1219 1552 1557 1418
20 0 0 0 8 1 3 58 370 270 192 206 248 184 0 0 0 0 0 100 407 938 1166 1253 922 990 1096 1155 1237 1412 1659 1650 1572 1487 1531 1366 734 842 1239 1448 1793 1355 1135 1070 1162 1276 1561 1491 1461
438 0 0 0 40 35 161 28 18 261 330 292 210 0 0 0 0 0 52 332 539 717 1023 948 724 720 856 1291 959 773 948 954 984 799 162 62 89 197 807 1460 1595 1368 1184 1356 1894 1639 1264 1355 267
179 35 24 74 48 31 38 102 360 419 372 277 192 14 3 0 29 82 136 346 497 600 806 557 500 549 718 825 610 557 643 691 617 34 0 0 163 438 879 801 1137 604 271 257 219 398 651 739 380
35 253 215 47 56 22 23 131 536 396 384 291 185 91 117 129 162 132 181 100 302 437 501 295 423 531 138 485 456 466 460 408 419 0 0 20 190 477 621 388 434 494 205 432 536 606 694 609 74
25 40 107 112 62 17 2 18 3 281 447 272 129 219 230 163 193 277 222 74 105 161 187 188 427 346 54 138 109 342 271 286 429 0 0 107 97 349 504 675 459 459 307 54 1 510 286 160 40
1 0 7 33 20 4 4 0 39 494 406 322 174 221 252 250 317 296 194 146 58 61 85 99 335 218 134 23 0 29 14 74 303 34 0 177 0 327 676 653 370 391 273 16 0 239 11 19 43
0 0 0 11 0 1 10 3 557 425 393 357 276 265 227 275 298 297 208 210 48 12 36 52 165 175 143 22 0 0 0 34 306 319 280 171 386 572 546 490 188 151 124 41 154 140 16 44 55
0 0 0 15 25 19 25 7 561 352 285 254 210 191 159 179 211 244 256 161 156 9 16 0 184 317 76 52 105 240 1 0 246 478 456 369 350 815 645 294 362 439 280 455 412 247 246 141 141
0 0 0 0 33 46 48 28 585 353 306 273 213 188 178 189 120 108 223 152 144 34 0 0 59 472 12 324 297 349 173 122 152 264 379 694 936 1016 782 646 333 131 333 346 362 283 602 105 108
0 0 0 0 0 28 56 4 487 350 352 365 289 230 215 202 141 107 120 137 80 28 0 15 0 320 118 326 211 147 116 114 440 613 251 468 690 1198 931 471 679 482 85 542 575 91 0 0 1
0 0 0 0 0 0 1 133 484 438 309 439 384 372 261 226 130 156 125 104 78 48 39 14 0 168 274 401 274 72 53 19 195 285 288 299 674 1074 1059 946 670 237 215 644 117 34 6 0 0
0 0 0 0 0 0 0 101 353 473 349 430 408 407 401 369 256 201 189 156 112 80 65 31 9 10 392 242 340 88 3 18 147 33 313 319 788 1079 1093 973 619 721 384 502 292 410 16 0 0
0 0 0 0 0 0 0 107 127 210 338 377 328 343 314 320 221 267 168 227 160 107 93 59 45 0 142 275 174 400 403 237 278 61 660 480 932 1275 1353 796 774 793 709 712 609 576 66 0 0
0 0 0 0 0 0 0 38 106 173 131 64 54 102 163 188 234 204 105 237 111 155 49 179 167 88 57 344 176 419 447 628 419 195 189 783 1018 1281 1181 1054 1002 870 672 835 710 758 329 0 0
0 0 0 0 0 0 0 0 83 126 44 0 0 0 73 169 264 130 67 37 56 138 140 187 435 243 173 559 278 260 343 463 338 108 53 682 837 1258 1097 947 908 800 770 352 551 995 622 124 1
0 0 0 0 0 0 0 0 0 53 30 2 13 0 19 173 300 236 136 76 96 204 210 261 655 399 325 647 510 392 324 325 296 198 71 313 764 784 1185 1172 942 785 1093 749 257 420 937 539 221
0 0 0 0 0 0 0 0 0 19 30 27 3 0 57 222 279 242 228 148 126 351 284 347 438 993 697 661 778 667 574 459 472 222 81 378 471 553 986 1423 1198 1022 1043 981 646 470 1054 562 875
0 0 0 0 0 0 0 0 0 0 8 25 24 36 180 267 119 257 276 213 159 460 475 351 507 814 1011 906 810 841 807 732 574 224 130 173 722 564 640 1331 1324 1263 1178 1030 762 724 914 1149 640
0 0 0 0 0 0 0 0 0 0 0 0 22 109 321 279 124 196 287 280 209 467 670 565 512 607 1125 1005 1060 1153 1057 915 807 409 335 110 628 959 804 1022 1503 1249 1347 995 1124 849 951 1517 1072
0 0 0 0 0 0 0 0 0 0 0 0 0 96 405 447 226 130 269 352 278 504 733 857 809 715 1170 1195 980 916 1008 1509 996 497 435 881 386 721 1172 1045 1526 1441 1289 1162 1247 1258 1052 1215 1331
0 0 0 0 0 0 0 0 0 0 0 0 1 25 315 415 319 40 266 407 358 423 721 1252 1189 1058 1320 1490 1424 1131 799 798 1631 818 175 247 779 482 659 1189 1193 1652 1462 1270 1128 1335 1636 1198 1293
0 0 0 0 0 0 0 0 0 0 0 0 0 125 130 207 302 157 451 436 421 442 702 1174 1592 1386 1378 1661 1663 1560 1323 856 839 1626 829 335 424 929 505 1218 1288 1429 1677 1616 1420 1285 1502 1851 1426